FW0027 Weather Reports


time (UTC)temp
C
wind
direction
speed
KPH
gust
KPH
rain 1hr
cm
rain 24hr
cm
rain mn
cm
humidity
%
barometer
mb
20260505094503 31 97 12.9 29.0 0.00 0.00 0.00 67 1010.1
20260505093821 32 106 11.3 24.1 0.00 0.00 0.00 66 1010.0
20260505093102 31 88 11.3 22.5 0.00 0.00 0.00 66 1010.0
20260505092833 32 101 14.5 24.1 0.00 0.00 0.00 65 1009.9
20260505091850 32 116 11.3 24.1 0.00 0.00 0.00 65 1009.8
20260505091603 32 107 14.5 20.9 0.00 0.00 0.00 65 1009.9
20260505090839 32 124 14.5 24.1 0.00 0.00 0.00 64 1009.7
20260505090008 32 109 12.9 25.7 0.00 0.00 0.00 63 1009.8
20260505085857 32 125 11.3 20.9 0.00 0.00 0.00 63 1009.8
20260505084828 32 121 11.3 19.3 0.00 0.00 0.00 64 1009.7
20260505084602 32 120 11.3 20.9 0.00 0.00 0.00 64 1009.7
20260505083004 32 107 17.7 25.7 0.00 0.00 0.00 62 1009.7
20260505081558 32 107 12.9 29.0 0.00 0.00 0.00 61 1009.6
20260505081504 32 100 17.7 29.0 0.00 0.00 0.00 60 1009.7
20260505080540 33 94 14.5 29.0 0.00 0.00 0.00 59 1009.6
20260505074503 33 90 14.5 24.1 0.00 0.00 0.00 57 1009.4
20260505074358 34 109 12.9 22.5 0.00 0.00 0.00 56 1009.4
20260505073332 34 119 14.5 27.4 0.00 0.00 0.00 56 1009.4
20260505073003 34 110 16.1 30.6 0.00 0.00 0.00 56 1009.4
20260505072330 35 61 12.9 30.6 0.00 0.00 0.00 56 1009.3
20260505071502 34 55 8.0 32.2 0.00 0.00 0.00 55 1009.5
20260505071330 35 111 11.3 30.6 0.00 0.00 0.00 55 1009.4
20260505070347 35 65 9.7 30.6 0.00 0.00 0.00 54 1009.6
20260505065321 34 113 12.9 30.6 0.00 0.00 0.00 55 1009.6
20260505064502 34 60 9.7 32.2 0.00 0.00 0.00 55 1009.8
20260505064325 34 102 12.9 24.1 0.00 0.00 0.00 55 1009.7
20260505062251 34 58 12.9 30.6 0.00 0.00 0.00 58 1009.8
20260505061605 33 86 12.9 24.1 0.00 0.00 0.00 58 1009.9
20260505060117 33 103 11.3 33.8 0.00 0.00 0.00 59 1010.0
20260505060003 33 86 9.7 24.1 0.00 0.00 0.00 59 1010.1
20260505055121 33 105 14.5 33.8 0.00 0.00 0.00 60 1010.3
20260505054604 33 116 16.1 35.4 0.00 0.00 0.00 58 1010.5
20260505054055 34 88 12.9 29.0 0.00 0.00 0.00 57 1010.4
20260505053107 34 121 16.1 30.6 0.00 0.00 0.00 57 1010.5
20260505051602 33 148 17.7 30.6 0.00 0.00 0.00 59 1010.7
20260505050931 34 103 14.5 32.2 0.00 0.00 0.00 58 1010.6
20260505041655 34 106 16.1 30.6 0.00 0.00 0.00 56 1011.2
20260505041502 33 102 12.9 32.2 0.00 0.00 0.00 57 1011.2
20260505040625 34 142 16.1 32.2 0.00 0.00 0.00 57 1011.3
20260505040108 33 108 16.1 33.8 0.00 0.00 0.00 57 1011.4
20260505035558 34 117 16.1 30.6 0.00 0.00 0.00 55 1011.4
20260505034602 33 123 12.9 24.1 0.00 0.00 0.00 57 1011.4
20260505034507 33 162 14.5 22.5 0.00 0.00 0.00 57 1011.5
20260505033607 33 99 14.5 29.0 0.00 0.00 0.00 57 1011.6
20260505033103 33 111 12.9 30.6 0.00 0.00 0.00 58 1011.7
20260505032545 33 131 14.5 30.6 0.00 0.00 0.00 59 1011.7
20260505031603 33 105 17.7 32.2 0.00 0.00 0.00 59 1011.9
20260505031529 33 119 16.1 30.6 0.00 0.00 0.00 59 1011.8
20260505030457 33 129 14.5 29.0 0.00 0.00 0.00 59 1011.9
20260505030003 33 107 14.5 30.6 0.00 0.00 0.00 59 1012.0
20260505025501 33 122 12.9 27.4 0.00 0.00 0.00 59 1012.0
20260505024603 33 120 12.9 25.7 0.00 0.00 0.00 60 1012.1
20260505024437 33 78 11.3 30.6 0.00 0.00 0.00 62 1011.9
20260505023003 32 150 14.5 29.0 0.00 0.00 0.00 61 1012.1
20260505022234 32 151 12.9 24.1 0.00 0.00 0.00 62 1012.1
20260505021506 32 128 14.5 25.7 0.00 0.00 0.00 61 1012.3
20260505021236 33 109 12.9 24.1 0.00 0.00 0.00 60 1012.4
20260505020240 33 116 11.3 29.0 0.00 0.00 0.00 59 1012.4
20260505015259 32 86 12.9 29.0 0.00 0.00 0.00 59 1012.5
20260505014502 32 111 14.5 30.6 0.00 0.00 0.00 61 1012.6
20260505014304 32 92 11.3 27.4 0.00 0.00 0.00 62 1012.6
20260505013105 32 109 12.9 22.5 0.00 0.00 0.00 65 1012.7
20260505012204 32 105 8.0 16.1 0.00 0.00 0.00 65 1012.7
20260505011608 31 105 9.7 17.7 0.00 0.00 0.00 65 1012.7
20260505011200 32 101 8.0 16.1 0.00 0.00 0.00 65 1012.6
20260505010203 32 92 6.4 12.9 0.00 0.00 0.00 64 1012.5
20260505010003 31 92 8.0 14.5 0.00 0.00 0.00 64 1012.6
20260505004602 31 91 6.4 14.5 0.00 0.00 0.00 62 1012.7
20260505004104 31 92 6.4 17.7 0.00 0.00 0.00 63 1012.6
20260505003125 31 91 8.0 17.7 0.00 0.00 0.00 62 1012.7
20260505003003 31 101 8.0 16.1 0.00 0.00 0.00 62 1012.7
20260505002135 31 107 6.4 14.5 0.00 0.00 0.00 62 1012.7
20260505001501 31 103 8.0 16.1 0.00 0.00 0.00 63 1012.7
20260505001136 31 109 6.4 14.5 0.00 0.00 0.00 63 1012.7
20260505000201 31 108 6.4 14.5 0.00 0.00 0.00 64 1012.7
20260505000139 30 108 6.4 16.1 0.00 0.00 0.00 63 1012.7
20260504235215 31 97 6.4 11.3 0.00 0.00 0.00 64 1012.6
20260504234504 31 94 9.7 12.9 0.00 0.00 0.00 63 1012.8
20260504234213 31 92 4.8 11.3 0.00 0.00 0.00 64 1012.8
20260504233224 30 103 1.6 9.7 0.00 0.00 0.00 66 1012.7
20260504233109 30 102 1.6 11.3 0.00 0.00 0.00 65 1012.8
20260504232209 30 103 3.2 9.7 0.00 0.00 0.00 68 1012.7
20260504231603 30 103 4.8 11.3 0.00 0.00 0.00 68 1012.7
20260504231153 30 103 3.2 9.7 0.00 0.00 0.00 68 1012.6
20260504230131 29 103 3.2 9.7 0.00 0.00 0.00 70 1012.4
20260504230011 29 103 6.4 11.3 0.00 0.00 0.00 70 1012.5
20260504225150 29 103 4.8 9.7 0.00 0.00 0.00 72 1012.4
20260504224611 28 103 6.4 11.3 0.00 0.00 0.00 73 1012.4
20260504224152 28 103 4.8 9.7 0.00 0.00 0.00 74 1012.3
20260504223005 27 103 6.4 11.3 0.00 0.00 0.00 77 1012.2
20260504222052 27 103 3.2 8.0 0.00 0.00 0.00 79 1012.2
20260504221504 27 103 1.6 9.7 0.00 0.00 0.00 80 1012.1
20260504221059 27 103 1.6 6.4 0.00 0.00 0.00 80 1012.0
20260504220123 27 103 1.6 6.4 0.00 0.00 0.00 79 1012.1
20260504215119 27 103 1.6 4.8 0.00 0.00 0.00 79 1011.9
20260504214504 27 103 3.2 4.8 0.00 0.00 0.00 79 1012.0
20260504213148 27 103 1.6 4.8 0.00 0.00 0.00 78 1011.9
20260504212941 27 103 0.0 4.8 0.00 0.00 0.00 78 1012.0
20260504211949 27 103 0.0 6.4 0.00 0.00 0.00 78 1011.8
20260504211607 27 103 1.6 4.8 0.00 0.00 0.00 78 1011.8
20260504210005 27 103 3.2 8.0 0.00 0.00 0.00 78 1011.7
20260504205840 27 103 1.6 6.4 0.00 0.00 0.00 78 1011.7
20260504204853 27 103 1.6 6.4 0.00 0.00 0.00 78 1011.6
20260504204604 27 103 1.6 8.0 0.00 0.00 0.00 78 1011.7
20260504203917 27 103 4.8 8.0 0.00 0.00 0.00 78 1011.6
20260504203008 27 103 3.2 8.0 0.00 0.00 0.00 77 1011.6
20260504202849 27 103 1.6 8.0 0.00 0.00 0.00 77 1011.5
20260504201849 27 103 1.6 8.0 0.00 0.00 0.00 77 1011.5
20260504201505 27 103 1.6 8.0 0.00 0.00 0.00 77 1011.4
20260504200840 27 103 1.6 6.4 0.00 0.00 0.00 77 1011.4
20260504195857 27 103 1.6 6.4 0.00 0.00 0.00 77 1011.3
20260504194911 27 103 1.6 6.4 0.00 0.00 0.00 76 1011.4
20260504194503 27 103 1.6 8.0 0.00 0.00 0.00 76 1011.4
20260504193907 27 103 3.2 6.4 0.00 0.00 0.00 76 1011.4
20260504193112 27 103 3.2 8.0 0.00 0.00 0.00 76 1011.4
20260504192835 27 103 1.6 6.4 0.00 0.00 0.00 76 1011.4
20260504191604 27 103 3.2 8.0 0.00 0.00 0.00 76 1011.4
20260504190702 27 103 1.6 6.4 0.00 0.00 0.00 77 1011.5
20260504190004 27 103 0.0 9.7 0.00 0.00 0.00 77 1011.5
20260504185721 27 103 3.2 8.0 0.00 0.00 0.00 77 1011.5
20260504184657 27 103 4.8 9.7 0.00 0.00 0.00 76 1011.5
20260504184609 27 103 6.4 11.3 0.00 0.00 0.00 76 1011.5
20260504183633 27 103 4.8 9.7 0.00 0.00 0.00 76 1011.5
20260504183002 27 103 6.4 9.7 0.00 0.00 0.00 76 1011.7
20260504182606 27 103 3.2 8.0 0.00 0.00 0.00 76 1011.7
20260504181541 28 103 6.4 12.9 0.00 0.00 0.00 76 1011.7
20260504181502 27 103 6.4 12.9 0.00 0.00 0.00 76 1011.7
20260504180524 27 102 4.8 12.9 0.00 0.00 0.00 75 1011.7
20260504180006 27 101 6.4 9.7 0.00 0.00 0.00 75 1011.7
20260504175526 28 101 4.8 9.7 0.00 0.00 0.00 75 1011.8
20260504174617 27 101 4.8 11.3 0.00 0.00 0.00 74 1012.0
20260504174510 28 101 4.8 11.3 0.00 0.00 0.00 74 1011.9
20260504173530 28 101 6.4 11.3 0.00 0.00 0.00 73 1012.0
20260504173002 27 101 6.4 11.3 0.00 0.00 0.00 73 1012.1
20260504171503 27 101 6.4 11.3 0.00 0.00 0.00 74 1012.2
20260504171401 28 101 4.8 9.7 0.00 0.00 0.00 74 1012.2
20260504170414 28 101 6.4 12.9 0.00 0.00 0.00 73 1012.1
20260504170105 28 101 6.4 11.3 0.00 0.00 0.00 73 1012.2
20260504160105 28 115 11.3 20.9 0.00 0.00 0.00 72 1012.7
20260504150827 28 113 11.3 27.4 0.00 0.00 0.00 71 1013.1
20260504140513 29 126 11.3 27.4 0.00 0.00 0.00 68 1012.6
20260504140112 28 130 16.1 29.0 0.00 0.00 0.00 68 1012.8
20260504130222 29 125 12.9 22.5 0.00 0.00 0.00 70 1012.3
20260504120156 30 108 11.3 20.9 0.00 0.00 0.00 69 1012.1
20260504100106 31 116 12.9 24.1 0.00 0.00 0.00 63 1010.8